This is the latest recevied weather packets stored in our database for station/object JR5YHL-13. If no packets are shown the sender has not sent any weather packets the latest 1 day(s).
| Time | Temp. | Humidity | Pressure | Rain* | Wind** | Luminosity | Snow |
|---|---|---|---|---|---|---|---|
| 1778007626 | 12.78° C | 82% | 1019.5 hPa | 0 mm | 0 m/s | - | - |
| 1778007028 | 12.78° C | 80% | 1019.6 hPa | 0 mm | 0.89 m/s, 248° | - | - |
| 1778006431 | 12.78° C | 78% | 1019.8 hPa | 0 mm | 0.89 m/s, 225° | - | - |
| 1778005833 | 12.78° C | 79% | 1020.1 hPa | 0 mm | 1.34 m/s, 270° | - | - |
| 1778005235 | 12.78° C | 78% | 1020.1 hPa | 0 mm | 1.79 m/s, 203° | - | - |
| 1778004637 | 13.33° C | 77% | 1020.2 hPa | 0 mm | 1.79 m/s, 225° | - | - |
| 1778004040 | 13.33° C | 76% | 1020.1 hPa | 0 mm | 1.79 m/s, 270° | - | - |
| 1778003442 | 13.33° C | 75% | 1020.1 hPa | 0 mm | 1.34 m/s, 270° | - | - |
| 1778002844 | 13.33° C | 74% | 1020.2 hPa | 0 mm | 0.89 m/s, 225° | - | - |
| 1778002246 | 13.89° C | 74% | 1020.1 hPa | 0 mm | 1.34 m/s, 225° | - | - |
| 1778001649 | 13.89° C | 73% | 1020.2 hPa | 0 mm | 1.79 m/s, 225° | - | - |
| 1778001051 | 13.89° C | 73% | 1020.3 hPa | 0 mm | 1.34 m/s, 270° | - | - |
| 1778000453 | 13.89° C | 72% | 1020.4 hPa | 0 mm | 1.79 m/s, 225° | - | - |
| 1777999855 | 13.89° C | 73% | 1020.6 hPa | 0 mm | 0.89 m/s, 0° | - | - |
| 1777999258 | 13.89° C | 72% | 1020.6 hPa | 0 mm | 1.34 m/s, 248° | - | - |
| 1777998660 | 13.89° C | 71% | 1020.6 hPa | 0 mm | 1.34 m/s, 270° | - | - |
| 1777998062 | 13.89° C | 71% | 1020.7 hPa | 0 mm | 1.34 m/s, 315° | - | - |
| 1777997465 | 13.89° C | 70% | 1020.7 hPa | 0 mm | 1.34 m/s, 315° | - | - |
| 1777996867 | 13.89° C | 71% | 1020.9 hPa | 0 mm | 0.89 m/s, 270° | - | - |
| 1777996269 | 13.89° C | 70% | 1021 hPa | 0 mm | 0.89 m/s, 270° | - | - |
| 1777995672 | 14.44° C | 69% | 1021.2 hPa | 0 mm | 0.89 m/s, 270° | - | - |
| 1777995074 | 13.89° C | 69% | 1021.3 hPa | 0 mm | 1.34 m/s, 270° | - | - |
| 1777994476 | 14.44° C | 69% | 1021.2 hPa | 0 mm | 1.34 m/s, 315° | - | - |
| 1777993878 | 14.44° C | 68% | 1021.3 hPa | 0 mm | 1.34 m/s, 225° | - | - |
| 1777993281 | 14.44° C | 67% | 1021.4 hPa | 0 mm | 1.79 m/s, 225° | - | - |
* Rain latest hour (hover to see other rain measurements)
** Current wind speed in m/s (hover to see current wind gust speed)